N956L KMYV-KRDD

Flight info

Callsign N956L
Flight time 0h 56m
Altitude 4000
Route GONGS V195 RBL
Aircraft C172/L-SFG/C

Departure

Time 2026-04-24 21:48
Airport Yuba County Airport (KMYV)

Arrival

Time 2026-04-24 22:44
Airport Redding Municipal Airport (KRDD)
Time Latitude Longitude Altitude Speed Heading
2026-04-24 21:32 39.09376 -121.56621 66 ft 0 kts 155°
2026-04-24 21:41 39.09368 -121.56619 60 ft 6 kts 195°
2026-04-24 21:41 39.09334 -121.56623 62 ft 9 kts 160°
2026-04-24 21:41 39.09248 -121.56588 64 ft 6 kts 193°
2026-04-24 21:42 39.09247 -121.56588 64 ft 0 kts 212°
2026-04-24 21:44 39.09222 -121.56607 64 ft 10 kts 211°
2026-04-24 21:45 39.09202 -121.56620 63 ft 2 kts 195°
2026-04-24 21:45 39.09200 -121.56621 63 ft 0 kts 195°
2026-04-24 21:47 39.09174 -121.56630 60 ft 4 kts 202°
2026-04-24 21:47 39.09144 -121.56660 61 ft 8 kts 239°
2026-04-24 21:47 39.09156 -121.56719 61 ft 1 kts
2026-04-24 21:47 39.09163 -121.56726 61 ft 10 kts 322°
2026-04-24 21:48 39.09407 -121.56867 71 ft 76 kts 338°
2026-04-24 21:48 39.09991 -121.57128 461 ft 94 kts 323°
2026-04-24 21:48 39.10612 -121.57531 898 ft 115 kts 329°
2026-04-24 21:48 39.11304 -121.58003 1452 ft 108 kts 331°
2026-04-24 21:49 39.12053 -121.58441 1630 ft 128 kts 340°
2026-04-24 21:49 39.12887 -121.58683 1865 ft 117 kts 346°
2026-04-24 21:49 39.13701 -121.58875 1886 ft 123 kts 348°
2026-04-24 21:49 39.14575 -121.59076 1864 ft 128 kts 349°
2026-04-24 21:50 39.15432 -121.59233 2000 ft 120 kts 353°
2026-04-24 21:50 39.16267 -121.59353 2041 ft 122 kts 351°
2026-04-24 21:50 39.17094 -121.59500 2143 ft 122 kts 349°
2026-04-24 21:50 39.17915 -121.59659 2268 ft 119 kts 349°
2026-04-24 21:51 39.18754 -121.59794 2334 ft 121 kts 352°
2026-04-24 21:51 39.19606 -121.59902 2291 ft 126 kts 352°
2026-04-24 21:51 39.20437 -121.59992 2377 ft 116 kts 355°
2026-04-24 21:51 39.21304 -121.60055 2449 ft 129 kts 356°
2026-04-24 21:52 39.22123 -121.60120 2741 ft 116 kts 354°
2026-04-24 21:52 39.22960 -121.60183 2741 ft 126 kts 355°
2026-04-24 21:52 39.23829 -121.60238 2818 ft 118 kts 357°
2026-04-24 21:52 39.24615 -121.60394 2835 ft 117 kts 339°
2026-04-24 21:53 39.25354 -121.60872 2888 ft 112 kts 323°
2026-04-24 21:53 39.25975 -121.61415 3028 ft 108 kts 322°
2026-04-24 21:53 39.26647 -121.61973 3103 ft 116 kts 327°
2026-04-24 21:53 39.27305 -121.62464 3341 ft 108 kts 329°
2026-04-24 21:54 39.27997 -121.62926 3443 ft 113 kts 334°
2026-04-24 21:54 39.28707 -121.63301 3601 ft 109 kts 340°
2026-04-24 21:54 39.29432 -121.63631 3641 ft 109 kts 340°
2026-04-24 21:54 39.30148 -121.63944 3666 ft 109 kts 341°
2026-04-24 21:55 39.30843 -121.64270 3769 ft 107 kts 339°
2026-04-24 21:55 39.31553 -121.64566 3830 ft 107 kts 342°
2026-04-24 21:55 39.32250 -121.64880 3911 ft 107 kts 337°
2026-04-24 21:55 39.32983 -121.65262 3849 ft 115 kts 336°
2026-04-24 21:56 39.33671 -121.65651 3897 ft 108 kts 335°
2026-04-24 21:56 39.34400 -121.66059 3715 ft 115 kts 335°
2026-04-24 21:56 39.35120 -121.66506 3627 ft 115 kts 331°
2026-04-24 21:56 39.35802 -121.66981 3648 ft 110 kts 330°
2026-04-24 21:57 39.36469 -121.67443 3728 ft 105 kts 330°
2026-04-24 21:57 39.37095 -121.67900 3889 ft 103 kts 329°
2026-04-24 21:57 39.37707 -121.68373 4041 ft 102 kts 328°
2026-04-24 21:57 39.38326 -121.68866 4125 ft 106 kts 327°
2026-04-24 21:58 39.38946 -121.69375 4170 ft 106 kts 325°
2026-04-24 21:58 39.39560 -121.69917 4156 ft 108 kts 324°
2026-04-24 21:58 39.40175 -121.70468 4164 ft 108 kts 325°
2026-04-24 21:58 39.40803 -121.70996 4184 ft 106 kts 326°
2026-04-24 21:59 39.41422 -121.71520 4180 ft 109 kts 326°
2026-04-24 21:59 39.42062 -121.72033 4225 ft 107 kts 329°
2026-04-24 21:59 39.42754 -121.72429 4208 ft 110 kts 341°
2026-04-24 21:59 39.43472 -121.72695 4262 ft 105 kts 339°
2026-04-24 22:00 39.44152 -121.73086 4221 ft 108 kts 331°
2026-04-24 22:00 39.44797 -121.73563 4246 ft 106 kts 326°
2026-04-24 22:00 39.45409 -121.74101 4226 ft 107 kts 320°
2026-04-24 22:00 39.45982 -121.74732 4195 ft 109 kts 314°
2026-04-24 22:01 39.46510 -121.75409 4187 ft 108 kts 313°
2026-04-24 22:01 39.47034 -121.76129 4123 ft 110 kts 310°
2026-04-24 22:01 39.47516 -121.76867 4133 ft 107 kts 307°
2026-04-24 22:01 39.47996 -121.77632 4068 ft 111 kts 304°
2026-04-24 22:02 39.48421 -121.78427 4106 ft 107 kts 299°
2026-04-24 22:02 39.48826 -121.79273 4029 ft 111 kts 298°
2026-04-24 22:02 39.49236 -121.80098 4065 ft 110 kts 301°
2026-04-24 22:02 39.49664 -121.80945 4027 ft 112 kts 297°
2026-04-24 22:03 39.49977 -121.81836 4070 ft 108 kts 288°
2026-04-24 22:03 39.50276 -121.82752 3994 ft 112 kts 292°
2026-04-24 22:03 39.50582 -121.83646 4020 ft 109 kts 295°
2026-04-24 22:03 39.51050 -121.84449 4029 ft 110 kts 316°
2026-04-24 22:04 39.51636 -121.85058 4041 ft 111 kts 321°
2026-04-24 22:04 39.52275 -121.85631 4034 ft 111 kts 324°
2026-04-24 22:04 39.52923 -121.86163 4028 ft 111 kts 329°
2026-04-24 22:04 39.53598 -121.86652 4063 ft 111 kts 331°
2026-04-24 22:05 39.54272 -121.87166 4082 ft 114 kts 326°
2026-04-24 22:05 39.54908 -121.87727 4090 ft 111 kts 324°
2026-04-24 22:05 39.55552 -121.88275 4059 ft 110 kts 325°
2026-04-24 22:05 39.56203 -121.88785 4076 ft 109 kts 328°
2026-04-24 22:06 39.56877 -121.89237 4116 ft 109 kts 333°
2026-04-24 22:06 39.57553 -121.89640 4189 ft 105 kts 335°
2026-04-24 22:06 39.58250 -121.90004 4179 ft 110 kts 338°
2026-04-24 22:06 39.58966 -121.90304 4237 ft 107 kts 344°
2026-04-24 22:07 39.59703 -121.90510 4235 ft 109 kts 347°
2026-04-24 22:07 39.60430 -121.90723 4295 ft 106 kts 345°
2026-04-24 22:07 39.61154 -121.90966 4295 ft 109 kts 344°
2026-04-24 22:07 39.61874 -121.91222 4449 ft 105 kts 343°
2026-04-24 22:08 39.62576 -121.91471 4569 ft 105 kts 342°
2026-04-24 22:08 39.63283 -121.91729 4700 ft 104 kts 344°
2026-04-24 22:08 39.63984 -121.91939 4809 ft 105 kts 345°
2026-04-24 22:08 39.64705 -121.92141 4897 ft 105 kts 348°
2026-04-24 22:09 39.65426 -121.92252 5004 ft 106 kts 355°
2026-04-24 22:09 39.66165 -121.92310 5093 ft 105 kts 355°
2026-04-24 22:09 39.66887 -121.92396 5193 ft 105 kts 349°
2026-04-24 22:09 39.67606 -121.92609 5265 ft 105 kts 341°
2026-04-24 22:10 39.68290 -121.92869 5365 ft 103 kts 341°
2026-04-24 22:10 39.68951 -121.93169 5556 ft 98 kts 337°
2026-04-24 22:10 39.69611 -121.93489 5684 ft 103 kts 338°
2026-04-24 22:10 39.70257 -121.93803 5917 ft 98 kts 338°
2026-04-24 22:11 39.70909 -121.94123 6038 ft 101 kts 334°
2026-04-24 22:11 39.71520 -121.94545 6227 ft 99 kts 327°
2026-04-24 22:11 39.72127 -121.94993 6315 ft 102 kts 329°
2026-04-24 22:11 39.72750 -121.95408 6444 ft 100 kts 334°
2026-04-24 22:12 39.73408 -121.95741 6548 ft 102 kts 342°
2026-04-24 22:12 39.74085 -121.96009 6667 ft 102 kts 340°
2026-04-24 22:12 39.74760 -121.96287 6769 ft 103 kts 340°
2026-04-24 22:12 39.75440 -121.96581 6868 ft 103 kts 340°
2026-04-24 22:13 39.76119 -121.96863 6984 ft 102 kts 341°
2026-04-24 22:13 39.76814 -121.97087 7074 ft 103 kts 345°
2026-04-24 22:13 39.77521 -121.97239 7177 ft 104 kts 352°
2026-04-24 22:13 39.78236 -121.97392 7270 ft 104 kts 343°
2026-04-24 22:14 39.78904 -121.97732 7365 ft 103 kts 330°
2026-04-24 22:14 39.79537 -121.98153 7471 ft 102 kts 333°
2026-04-24 22:14 39.80176 -121.98567 7569 ft 102 kts 332°
2026-04-24 22:14 39.80820 -121.98968 7651 ft 103 kts 334°
2026-04-24 22:15 39.81481 -121.99340 7732 ft 103 kts 333°
2026-04-24 22:15 39.82125 -121.99760 7812 ft 104 kts 330°
2026-04-24 22:15 39.82758 -122.00198 7918 ft 103 kts 332°
2026-04-24 22:15 39.83393 -122.00628 8009 ft 102 kts 326°
2026-04-24 22:16 39.83972 -122.01175 8060 ft 104 kts 320°
2026-04-24 22:16 39.84524 -122.01780 8030 ft 105 kts 319°
2026-04-24 22:16 39.85100 -122.02379 7995 ft 106 kts 323°
2026-04-24 22:16 39.85660 -122.02971 7979 ft 104 kts 311°
2026-04-24 22:17 39.86081 -122.03751 7894 ft 105 kts 298°
2026-04-24 22:17 39.86384 -122.04600 7833 ft 104 kts 292°
2026-04-24 22:17 39.86677 -122.05458 7766 ft 103 kts 297°
2026-04-24 22:17 39.87066 -122.06233 7676 ft 106 kts 308°
2026-04-24 22:18 39.87565 -122.06933 7645 ft 103 kts 316°
2026-04-24 22:18 39.88135 -122.07512 7522 ft 108 kts 327°
2026-04-24 22:18 39.88798 -122.07922 7516 ft 102 kts 340°
2026-04-24 22:18 39.89498 -122.08125 7413 ft 107 kts 348°
2026-04-24 22:19 39.90224 -122.08183 7399 ft 103 kts 358°
2026-04-24 22:19 39.90955 -122.08103 7292 ft 108 kts
2026-04-24 22:19 39.91693 -122.08104 7252 ft 104 kts 355°
2026-04-24 22:19 39.92421 -122.08151 7132 ft 106 kts 354°
2026-04-24 22:20 39.93152 -122.08176 7062 ft 104 kts 354°
2026-04-24 22:20 39.93879 -122.08307 6924 ft 108 kts 347°
2026-04-24 22:20 39.94612 -122.08466 6846 ft 104 kts 348°
2026-04-24 22:20 39.95341 -122.08591 6707 ft 108 kts 349°
2026-04-24 22:21 39.96083 -122.08715 6609 ft 108 kts 347°
2026-04-24 22:21 39.96818 -122.08899 6506 ft 108 kts 345°
2026-04-24 22:21 39.97556 -122.09129 6413 ft 108 kts 344°
2026-04-24 22:21 39.98280 -122.09358 6332 ft 108 kts 343°
2026-04-24 22:22 39.99017 -122.09557 6258 ft 108 kts 347°
2026-04-24 22:22 39.99756 -122.09755 6178 ft 109 kts 346°
2026-04-24 22:22 40.00505 -122.09934 6093 ft 109 kts 346°
2026-04-24 22:22 40.01244 -122.10140 5976 ft 111 kts 342°
2026-04-24 22:23 40.01990 -122.10392 5858 ft 110 kts 344°
2026-04-24 22:23 40.02737 -122.10628 5743 ft 111 kts 345°
2026-04-24 22:23 40.03483 -122.10879 5643 ft 110 kts 342°
2026-04-24 22:23 40.04215 -122.11160 5529 ft 110 kts 340°
2026-04-24 22:24 40.04958 -122.11435 5425 ft 110 kts 343°
2026-04-24 22:24 40.05702 -122.11682 5289 ft 112 kts 344°
2026-04-24 22:24 40.06452 -122.11892 5189 ft 111 kts 350°
2026-04-24 22:24 40.07231 -122.12029 5082 ft 112 kts 351°
2026-04-24 22:25 40.07988 -122.12165 5012 ft 111 kts 349°
2026-04-24 22:25 40.08748 -122.12350 4905 ft 111 kts 345°
2026-04-24 22:25 40.09484 -122.12645 4747 ft 112 kts 339°
2026-04-24 22:25 40.10219 -122.12991 4569 ft 112 kts 337°
2026-04-24 22:26 40.10943 -122.13386 4375 ft 114 kts 335°
2026-04-24 22:26 40.11678 -122.13822 4197 ft 116 kts 334°
2026-04-24 22:26 40.12393 -122.14276 4070 ft 115 kts 331°
2026-04-24 22:26 40.13117 -122.14764 3900 ft 118 kts 332°
2026-04-24 22:27 40.13840 -122.15244 3810 ft 118 kts 330°
2026-04-24 22:27 40.14584 -122.15753 3662 ft 120 kts 331°
2026-04-24 22:27 40.15337 -122.16243 3505 ft 122 kts 336°
2026-04-24 22:27 40.16128 -122.16624 3290 ft 122 kts 341°
2026-04-24 22:28 40.16931 -122.16984 3117 ft 124 kts 340°
2026-04-24 22:28 40.17730 -122.17377 3025 ft 120 kts 339°
2026-04-24 22:28 40.18519 -122.17768 2847 ft 125 kts 338°
2026-04-24 22:28 40.19329 -122.18164 2751 ft 123 kts 339°
2026-04-24 22:29 40.20963 -122.18911 2547 ft 124 kts 340°
2026-04-24 22:29 40.21763 -122.19272 2480 ft 124 kts 341°
2026-04-24 22:29 40.22590 -122.19676 2347 ft 127 kts 339°
2026-04-24 22:30 40.23390 -122.20099 2335 ft 122 kts 336°
2026-04-24 22:30 40.24184 -122.20540 2167 ft 126 kts 333°
2026-04-24 22:30 40.24960 -122.20998 2128 ft 120 kts 335°
2026-04-24 22:30 40.25746 -122.21416 1967 ft 125 kts 340°
2026-04-24 22:31 40.26587 -122.21733 1873 ft 123 kts 347°
2026-04-24 22:31 40.27416 -122.21961 1871 ft 120 kts 347°
2026-04-24 22:31 40.28217 -122.22180 1908 ft 117 kts 349°
2026-04-24 22:31 40.29023 -122.22380 1886 ft 122 kts 348°
2026-04-24 22:32 40.29875 -122.22540 1886 ft 121 kts 354°
2026-04-24 22:32 40.30705 -122.22646 1951 ft 119 kts 355°
2026-04-24 22:32 40.31533 -122.22755 1965 ft 119 kts 353°
2026-04-24 22:32 40.32377 -122.22828 1930 ft 122 kts 358°
2026-04-24 22:33 40.33203 -122.22877 2008 ft 119 kts
2026-04-24 22:33 40.34042 -122.22894 1980 ft 119 kts
2026-04-24 22:33 40.34579 -122.22895 1958 ft 116 kts
2026-04-24 22:33 40.35395 -122.22890 1956 ft 117 kts
2026-04-24 22:34 40.36216 -122.22888 1897 ft 120 kts
2026-04-24 22:34 40.37039 -122.22903 1901 ft 117 kts
2026-04-24 22:34 40.38140 -122.22820 1783 ft 125 kts
2026-04-24 22:34 40.39018 -122.22722 1801 ft 124 kts
2026-04-24 22:35 40.39849 -122.22593 1877 ft 119 kts
2026-04-24 22:35 40.40398 -122.22499 1887 ft 115 kts
2026-04-24 22:35 40.41191 -122.22370 1862 ft 118 kts
2026-04-24 22:35 40.42021 -122.22236 1773 ft 122 kts
2026-04-24 22:36 40.42853 -122.22094 1849 ft 117 kts
2026-04-24 22:36 40.43605 -122.21956 1880 ft 111 kts
2026-04-24 22:36 40.44390 -122.21788 1825 ft 117 kts
2026-04-24 22:36 40.45217 -122.21780 1745 ft 125 kts 355°
2026-04-24 22:37 40.46083 -122.21892 1765 ft 120 kts 355°
2026-04-24 22:37 40.46869 -122.22004 1879 ft 114 kts 352°
2026-04-24 22:37 40.47693 -122.22182 1716 ft 126 kts 347°
2026-04-24 22:37 40.48515 -122.22523 1660 ft 120 kts 337°
2026-04-24 22:38 40.49243 -122.22948 1744 ft 110 kts 334°
2026-04-24 22:38 40.49941 -122.23419 1795 ft 102 kts 314°
2026-04-24 22:38 40.50238 -122.24235 1682 ft 114 kts 281°
2026-04-24 22:38 40.50478 -122.25272 1534 ft 118 kts 289°
2026-04-24 22:39 40.50860 -122.26232 1440 ft 122 kts 295°
2026-04-24 22:39 40.51328 -122.27130 1447 ft 115 kts 313°
2026-04-24 22:39 40.52061 -122.27413 1517 ft 112 kts 359°
2026-04-24 22:39 40.52832 -122.27463 1513 ft 111 kts 355°
2026-04-24 22:40 40.53646 -122.27472 1349 ft 117 kts 359°
2026-04-24 22:40 40.54447 -122.27448 1296 ft 112 kts 359°
2026-04-24 22:40 40.55195 -122.27409 1298 ft 108 kts
2026-04-24 22:40 40.55932 -122.27330 1315 ft 104 kts
2026-04-24 22:41 40.56638 -122.27387 1347 ft 101 kts 352°
2026-04-24 22:41 40.57241 -122.27775 1380 ft 97 kts 303°
2026-04-24 22:41 40.57372 -122.28625 1286 ft 99 kts 244°
2026-04-24 22:41 40.56846 -122.29145 1227 ft 100 kts 194°
2026-04-24 22:42 40.56213 -122.29322 1299 ft 79 kts 191°
2026-04-24 22:42 40.55701 -122.29415 1323 ft 74 kts 187°
2026-04-24 22:42 40.55167 -122.29438 1213 ft 78 kts 184°
2026-04-24 22:42 40.54632 -122.29439 1096 ft 76 kts 182°
2026-04-24 22:43 40.54091 -122.29451 949 ft 77 kts 185°
2026-04-24 22:43 40.53569 -122.29470 847 ft 75 kts 183°
2026-04-24 22:43 40.53047 -122.29474 727 ft 74 kts 183°
2026-04-24 22:43 40.52538 -122.29483 631 ft 73 kts 183°
2026-04-24 22:44 40.52037 -122.29485 527 ft 69 kts 183°
2026-04-24 22:44 40.51617 -122.29483 502 ft 52 kts 181°
2026-04-24 22:44 40.51306 -122.29498 501 ft 38 kts 178°
2026-04-24 22:44 40.51079 -122.29486 502 ft 27 kts 183°
2026-04-24 22:45 40.50920 -122.29503 502 ft 19 kts 178°
2026-04-24 22:45 40.50818 -122.29527 503 ft 12 kts 240°
2026-04-24 22:45 40.50818 -122.29551 503 ft 0 kts 331°
2026-04-24 22:46 40.50826 -122.29569 503 ft 8 kts 294°
2026-04-24 22:46 40.50855 -122.29665 504 ft 10 kts 286°
2026-04-24 22:46 40.50830 -122.29750 504 ft 8 kts 254°
2026-04-24 22:46 40.50840 -122.29776 504 ft 4 kts 337°
2026-04-24 22:47 40.50859 -122.29780 504 ft 2 kts 357°
2026-04-24 22:47 40.50870 -122.29780 504 ft 1 kts
2026-04-24 22:47 40.50871 -122.29780 504 ft 0 kts